Time,TemperatureF,DewpointF,PressureIn,WindDirection,WindDirectionDegrees,WindSpeedMPH,WindSpeedGustMPH,Humidity,HourlyPrecipIn,Conditions,Clouds,dailyrainin,SoftwareType,DateUTC
2013-05-02 00:01:00,59.0,47.7,30.22,North,3,9.0,10.0,66,0.00,,---,0.00,VWS V14.00,2013-05-02 04:01:00,
2013-05-02 00:02:00,59.2,47.9,30.22,NE,40,6.0,11.0,66,0.00,,---,0.00,VWS V14.00,2013-05-02 04:02:00,
2013-05-02 00:07:00,59.0,47.7,30.22,NNE,32,0.0,11.0,66,0.00,,---,0.00,VWS V14.00,2013-05-02 04:07:00,
2013-05-02 00:12:00,59.0,47.7,30.22,NE,47,1.0,11.0,66,0.00,,---,0.00,VWS V14.00,2013-05-02 04:12:00,
2013-05-02 00:17:00,59.0,47.7,30.22,NE,40,1.0,11.0,66,0.00,,---,0.00,VWS V14.00,2013-05-02 04:17:00,
2013-05-02 00:22:00,59.0,47.3,30.22,ENE,75,2.0,11.0,65,0.00,,---,0.00,VWS V14.00,2013-05-02 04:22:00,
2013-05-02 00:27:00,59.0,47.7,30.22,NE,45,6.0,11.0,66,0.00,,---,0.00,VWS V14.00,2013-05-02 04:27:00,
2013-05-02 00:32:00,58.9,47.6,30.22,NNE,14,7.0,11.0,66,0.00,,---,0.00,VWS V14.00,2013-05-02 04:32:00,
2013-05-02 00:37:00,58.7,47.8,30.22,ENE,64,7.0,11.0,67,0.00,,---,0.00,VWS V14.00,2013-05-02 04:37:00,
2013-05-02 00:42:00,58.7,47.4,30.22,NNE,24,9.0,16.0,66,0.00,,---,0.00,VWS V14.00,2013-05-02 04:42:00,
2013-05-02 00:47:00,58.9,47.6,30.22,NNE,24,0.0,16.0,66,0.00,,---,0.00,VWS V14.00,2013-05-02 04:47:00,
2013-05-02 00:52:00,58.6,47.7,30.22,East,86,2.0,16.0,67,0.00,,---,0.00,VWS V14.00,2013-05-02 04:52:00,
2013-05-02 00:57:00,58.4,47.5,30.22,NE,47,9.0,16.0,67,0.00,,---,0.00,VWS V14.00,2013-05-02 04:57:00,
2013-05-02 01:02:00,58.3,47.8,30.22,ENE,64,4.0,15.0,68,0.00,,---,0.00,VWS V14.00,2013-05-02 05:02:00,
2013-05-02 01:07:00,58.3,47.4,30.22,ENE,58,6.0,15.0,67,0.00,,---,0.00,VWS V14.00,2013-05-02 05:07:00,
2013-05-02 01:12:00,58.1,47.6,30.22,ENE,69,8.0,15.0,68,0.00,,---,0.00,VWS V14.00,2013-05-02 05:12:00,
2013-05-02 01:17:00,58.0,47.1,30.21,East,82,8.0,15.0,67,0.00,,---,0.00,VWS V14.00,2013-05-02 05:17:00,
2013-05-02 01:22:00,57.8,47.3,30.21,NE,38,1.0,15.0,68,0.00,,---,0.00,VWS V14.00,2013-05-02 05:22:00,
2013-05-02 01:27:00,57.6,47.1,30.21,ENE,65,6.0,15.0,68,0.00,,---,0.00,VWS V14.00,2013-05-02 05:27:00,
2013-05-02 01:32:00,57.5,47.0,30.20,NE,55,6.0,9.0,68,0.00,,---,0.00,VWS V14.00,2013-05-02 05:32:00,
2013-05-02 01:37:00,57.5,47.0,30.20,East,86,7.0,9.0,68,0.00,,---,0.00,VWS V14.00,2013-05-02 05:37:00,
2013-05-02 01:42:00,57.5,46.6,30.20,NE,44,7.0,15.0,67,0.00,,---,0.00,VWS V14.00,2013-05-02 05:42:00,
2013-05-02 01:47:00,57.5,46.6,30.20,ENE,58,8.0,15.0,67,0.00,,---,0.00,VWS V14.00,2013-05-02 05:47:00,
2013-05-02 01:52:00,57.3,46.5,30.20,ENE,71,13.0,15.0,67,0.00,,---,0.00,VWS V14.00,2013-05-02 05:52:00,
2013-05-02 01:57:00,57.2,46.4,30.20,NE,52,9.0,15.0,67,0.00,,---,0.00,VWS V14.00,2013-05-02 05:57:00,
2013-05-02 02:02:00,57.2,46.4,30.20,NNE,30,15.0,16.0,67,0.00,,---,0.00,VWS V14.00,2013-05-02 06:02:00,
2013-05-02 02:07:00,57.2,46.8,30.20,ENE,73,6.0,16.0,68,0.00,,---,0.00,VWS V14.00,2013-05-02 06:07:00,
2013-05-02 02:12:00,57.2,46.8,30.20,NE,51,8.0,16.0,68,0.00,,---,0.00,VWS V14.00,2013-05-02 06:12:00,
2013-05-02 02:17:00,57.0,46.6,30.19,ENE,66,6.0,16.0,68,0.00,,---,0.00,VWS V14.00,2013-05-02 06:17:00,
2013-05-02 02:22:00,57.0,46.6,30.19,NE,48,7.0,16.0,68,0.00,,---,0.00,VWS V14.00,2013-05-02 06:22:00,
2013-05-02 02:27:00,57.0,46.6,30.19,NE,55,6.0,16.0,68,0.00,,---,0.00,VWS V14.00,2013-05-02 06:27:00,
2013-05-02 02:32:00,56.9,46.8,30.19,East,85,9.0,11.0,69,0.00,,---,0.00,VWS V14.00,2013-05-02 06:32:00,
2013-05-02 02:37:00,57.0,46.9,30.19,NE,48,2.0,13.0,69,0.00,,---,0.00,VWS V14.00,2013-05-02 06:37:00,
2013-05-02 02:42:00,57.0,47.3,30.19,NE,47,2.0,13.0,70,0.00,,---,0.00,VWS V14.00,2013-05-02 06:42:00,
2013-05-02 02:47:00,56.9,47.2,30.18,NE,52,10.0,13.0,70,0.00,,---,0.00,VWS V14.00,2013-05-02 06:47:00,
2013-05-02 02:52:00,57.0,47.3,30.18,NNE,28,4.0,13.0,70,0.00,,---,0.00,VWS V14.00,2013-05-02 06:52:00,
2013-05-02 02:57:00,56.9,47.6,30.18,ENE,58,9.0,13.0,71,0.00,,---,0.00,VWS V14.00,2013-05-02 06:57:00,
2013-05-02 03:02:00,56.9,47.6,30.18,ENE,61,7.0,11.0,71,0.00,,---,0.00,VWS V14.00,2013-05-02 07:02:00,
2013-05-02 03:07:00,56.7,47.8,30.18,ENE,65,7.0,13.0,72,0.00,,---,0.00,VWS V14.00,2013-05-02 07:07:00,
2013-05-02 03:13:00,56.7,47.8,30.18,NE,51,0.0,13.0,72,0.00,,---,0.00,VWS V14.00,2013-05-02 07:13:00,
2013-05-02 03:18:00,56.9,48.0,30.17,East,86,6.0,13.0,72,0.00,,---,0.00,VWS V14.00,2013-05-02 07:18:00,
2013-05-02 03:23:00,57.0,48.1,30.17,NNE,30,4.0,13.0,72,0.00,,---,0.00,VWS V14.00,2013-05-02 07:23:00,
2013-05-02 03:28:00,57.0,48.1,30.17,NE,45,4.0,13.0,72,0.00,,---,0.00,VWS V14.00,2013-05-02 07:28:00,
2013-05-02 03:33:00,56.9,48.3,30.17,ENE,75,2.0,8.0,73,0.00,,---,0.00,VWS V14.00,2013-05-02 07:33:00,
2013-05-02 03:38:00,56.7,48.2,30.17,ENE,75,2.0,8.0,73,0.00,,---,0.00,VWS V14.00,2013-05-02 07:38:00,
2013-05-02 03:43:00,56.9,48.3,30.17,NE,41,1.0,11.0,73,0.00,,---,0.00,VWS V14.00,2013-05-02 07:43:00,
2013-05-02 03:48:00,57.0,48.4,30.17,ENE,58,2.0,11.0,73,0.00,,---,0.00,VWS V14.00,2013-05-02 07:48:00,
2013-05-02 03:53:00,57.0,48.4,30.17,NNE,31,7.0,11.0,73,0.00,,---,0.00,VWS V14.00,2013-05-02 07:53:00,
2013-05-02 03:58:00,57.2,48.6,30.17,East,79,4.0,11.0,73,0.00,,---,0.00,VWS V14.00,2013-05-02 07:58:00,
2013-05-02 04:03:00,56.7,48.9,30.18,NE,49,6.0,10.0,75,0.00,,---,0.00,VWS V14.00,2013-05-02 08:03:00,
2013-05-02 04:08:00,56.5,49.0,30.18,NE,56,6.0,10.0,76,0.00,,---,0.00,VWS V14.00,2013-05-02 08:08:00,
2013-05-02 04:13:00,56.2,48.8,30.18,East,80,7.0,11.0,76,0.00,,---,0.00,VWS V14.00,2013-05-02 08:13:00,
2013-05-02 04:18:00,56.3,49.2,30.18,ENE,58,4.0,11.0,77,0.00,,---,0.00,VWS V14.00,2013-05-02 08:18:00,
2013-05-02 04:23:00,56.3,49.2,30.18,NE,44,7.0,11.0,77,0.00,,---,0.00,VWS V14.00,2013-05-02 08:23:00,
2013-05-02 04:28:00,56.5,49.4,30.18,NNE,30,4.0,11.0,77,0.00,,---,0.00,VWS V14.00,2013-05-02 08:28:00,
2013-05-02 04:33:00,56.2,49.4,30.18,NE,48,6.0,6.0,78,0.00,,---,0.00,VWS V14.00,2013-05-02 08:33:00,
2013-05-02 04:38:00,56.2,49.4,30.18,East,92,2.0,7.0,78,0.00,,---,0.00,VWS V14.00,2013-05-02 08:38:00,
2013-05-02 04:43:00,56.2,49.4,30.18,East,92,0.0,7.0,78,0.00,,---,0.00,VWS V14.00,2013-05-02 08:43:00,
2013-05-02 04:48:00,56.0,49.6,30.18,East,93,0.0,7.0,79,0.00,,---,0.00,VWS V14.00,2013-05-02 08:48:00,
2013-05-02 04:53:00,55.9,49.5,30.18,East,93,0.0,7.0,79,0.00,,---,0.00,VWS V14.00,2013-05-02 08:53:00,
2013-05-02 04:58:00,55.9,49.5,30.18,East,92,2.0,7.0,79,0.00,,---,0.00,VWS V14.00,2013-05-02 08:58:00,
2013-05-02 05:03:00,55.7,49.3,30.18,ESE,102,4.0,7.0,79,0.00,,---,0.00,VWS V14.00,2013-05-02 09:03:00,
2013-05-02 05:08:00,55.7,49.6,30.18,ESE,103,1.0,7.0,80,0.00,,---,0.00,VWS V14.00,2013-05-02 09:08:00,
2013-05-02 05:13:00,55.7,49.6,30.18,East,97,4.0,7.0,80,0.00,,---,0.00,VWS V14.00,2013-05-02 09:13:00,
2013-05-02 05:18:00,55.6,49.5,30.18,SE,124,0.0,7.0,80,0.00,,---,0.00,VWS V14.00,2013-05-02 09:18:00,
2013-05-02 05:23:00,55.6,49.9,30.18,SE,128,2.0,7.0,81,0.00,,---,0.00,VWS V14.00,2013-05-02 09:23:00,
2013-05-02 05:28:00,55.6,49.9,30.18,NE,56,1.0,7.0,81,0.00,,---,0.00,VWS V14.00,2013-05-02 09:28:00,
2013-05-02 05:33:00,55.4,49.7,30.19,ESE,121,2.0,2.0,81,0.00,,---,0.00,VWS V14.00,2013-05-02 09:33:00,
2013-05-02 05:38:00,55.4,49.7,30.19,ESE,121,6.0,6.0,81,0.00,,---,0.00,VWS V14.00,2013-05-02 09:38:00,
2013-05-02 05:43:00,55.4,50.0,30.19,ESE,121,0.0,6.0,82,0.00,,---,0.00,VWS V14.00,2013-05-02 09:43:00,
2013-05-02 05:48:00,55.4,49.7,30.18,ESE,120,2.0,6.0,81,0.00,,---,0.00,VWS V14.00,2013-05-02 09:48:00,
2013-05-02 05:53:00,55.4,50.0,30.18,SE,127,0.0,6.0,82,0.00,,---,0.00,VWS V14.00,2013-05-02 09:53:00,
2013-05-02 05:58:00,55.4,50.0,30.18,SE,127,1.0,6.0,82,0.00,,---,0.00,VWS V14.00,2013-05-02 09:58:00,
2013-05-02 06:03:00,55.4,50.0,30.18,SE,127,0.0,4.0,82,0.00,,---,0.00,VWS V14.00,2013-05-02 10:03:00,
2013-05-02 06:08:00,55.4,49.7,30.18,SE,127,0.0,4.0,81,0.00,,---,0.00,VWS V14.00,2013-05-02 10:08:00,
2013-05-02 06:13:00,55.3,49.6,30.18,SE,127,0.0,4.0,81,0.00,,---,0.00,VWS V14.00,2013-05-02 10:13:00,
2013-05-02 06:18:00,55.3,49.9,30.19,SE,127,0.0,4.0,82,0.00,,---,0.00,VWS V14.00,2013-05-02 10:18:00,
2013-05-02 06:23:00,55.3,49.9,30.19,SE,127,0.0,4.0,82,0.00,,---,0.00,VWS V14.00,2013-05-02 10:23:00,
2013-05-02 06:29:00,55.3,49.9,30.19,SE,127,0.0,4.0,82,0.00,,---,0.00,VWS V14.00,2013-05-02 10:29:00,
2013-05-02 06:34:00,55.3,49.9,30.20,SE,127,0.0,2.0,82,0.00,,---,0.00,VWS V14.00,2013-05-02 10:34:00,
2013-05-02 06:39:00,55.1,49.7,30.20,SE,127,4.0,4.0,82,0.00,,---,0.00,VWS V14.00,2013-05-02 10:39:00,
2013-05-02 06:44:00,55.1,49.7,30.20,SE,128,0.0,4.0,82,0.00,,---,0.00,VWS V14.00,2013-05-02 10:44:00,
2013-05-02 06:49:00,55.1,50.0,30.20,SE,128,0.0,4.0,83,0.00,,---,0.00,VWS V14.00,2013-05-02 10:49:00,
2013-05-02 06:54:00,55.0,49.9,30.20,SE,128,2.0,4.0,83,0.00,,---,0.00,VWS V14.00,2013-05-02 10:54:00,
2013-05-02 06:59:00,55.0,49.9,30.20,SE,128,0.0,4.0,83,0.00,,---,0.00,VWS V14.00,2013-05-02 10:59:00,
2013-05-02 07:04:00,55.0,49.9,30.21,SE,128,0.0,0.0,83,0.00,,---,0.00,VWS V14.00,2013-05-02 11:04:00,
2013-05-02 07:09:00,55.1,50.0,30.21,SE,128,0.0,0.0,83,0.00,,---,0.00,VWS V14.00,2013-05-02 11:09:00,
2013-05-02 07:14:00,55.1,50.0,30.21,SE,128,0.0,0.0,83,0.00,,---,0.00,VWS V14.00,2013-05-02 11:14:00,
2013-05-02 07:19:00,55.3,50.2,30.22,SE,128,0.0,0.0,83,0.00,,---,0.00,VWS V14.00,2013-05-02 11:19:00,
2013-05-02 07:24:00,55.6,50.2,30.22,SE,128,2.0,4.0,82,0.00,,---,0.00,VWS V14.00,2013-05-02 11:24:00,
2013-05-02 07:29:00,55.9,49.5,30.21,East,89,0.0,6.0,79,0.00,,---,0.00,VWS V14.00,2013-05-02 11:29:00,
2013-05-02 07:34:00,56.2,49.4,30.21,East,90,0.0,2.0,78,0.00,,---,0.00,VWS V14.00,2013-05-02 11:34:00,
2013-05-02 07:39:00,56.5,49.4,30.21,East,90,0.0,2.0,77,0.00,,---,0.00,VWS V14.00,2013-05-02 11:39:00,
2013-05-02 07:44:00,56.7,49.2,30.22,North,3,2.0,7.0,76,0.00,,---,0.00,VWS V14.00,2013-05-02 11:44:00,
2013-05-02 07:49:00,57.0,49.5,30.22,North,3,0.0,7.0,76,0.00,,---,0.00,VWS V14.00,2013-05-02 11:49:00,
2013-05-02 07:54:00,57.2,49.7,30.22,North,3,0.0,7.0,76,0.00,,---,0.00,VWS V14.00,2013-05-02 11:54:00,
2013-05-02 08:00:00,57.3,48.7,30.23,SSW,192,0.0,7.0,73,0.00,,---,0.00,VWS V14.00,2013-05-02 12:00:00,
2013-05-02 08:05:00,57.5,48.9,30.23,SSW,198,4.0,6.0,73,0.00,,---,0.00,VWS V14.00,2013-05-02 12:05:00,
2013-05-02 08:10:00,57.8,48.8,30.23,NE,34,2.0,7.0,72,0.00,,---,0.00,VWS V14.00,2013-05-02 12:10:00,
2013-05-02 08:15:00,58.1,48.8,30.23,NE,35,1.0,7.0,71,0.00,,---,0.00,VWS V14.00,2013-05-02 12:15:00,
2013-05-02 08:20:00,58.3,49.3,30.23,NE,34,0.0,7.0,72,0.00,,---,0.00,VWS V14.00,2013-05-02 12:20:00,
2013-05-02 08:25:00,58.4,49.4,30.23,East,88,1.0,9.0,72,0.00,,---,0.00,VWS V14.00,2013-05-02 12:25:00,
2013-05-02 08:30:00,58.6,49.6,30.22,East,88,4.0,4.0,72,0.00,,---,0.00,VWS V14.00,2013-05-02 12:30:00,
2013-05-02 08:35:00,58.6,50.0,30.22,East,88,2.0,6.0,73,0.00,,---,0.00,VWS V14.00,2013-05-02 12:35:00,
2013-05-02 08:40:00,58.6,49.2,30.22,NE,47,6.0,10.0,71,0.00,,---,0.00,VWS V14.00,2013-05-02 12:40:00,
2013-05-02 08:45:00,58.6,48.9,30.22,NE,56,8.0,10.0,70,0.00,,---,0.00,VWS V14.00,2013-05-02 12:45:00,
2013-05-02 08:50:00,58.7,49.0,30.22,NE,34,6.0,10.0,70,0.00,,---,0.00,VWS V14.00,2013-05-02 12:50:00,
2013-05-02 08:55:00,58.9,49.5,30.22,NE,52,0.0,11.0,71,0.00,,---,0.00,VWS V14.00,2013-05-02 12:55:00,
2013-05-02 09:00:00,59.2,49.8,30.22,NE,34,4.0,6.0,71,0.00,,---,0.00,VWS V14.00,2013-05-02 13:00:00,
2013-05-02 09:05:00,59.3,49.5,30.22,NE,34,6.0,9.0,70,0.00,,---,0.00,VWS V14.00,2013-05-02 13:05:00,
2013-05-02 09:10:00,59.5,49.7,30.22,ESE,123,7.0,9.0,70,0.00,,---,0.00,VWS V14.00,2013-05-02 13:10:00,
2013-05-02 09:15:00,59.8,49.6,30.22,ENE,75,6.0,11.0,69,0.00,,---,0.00,VWS V14.00,2013-05-02 13:15:00,
2013-05-02 09:20:00,60.1,50.3,30.22,North,6,10.0,16.0,70,0.00,,---,0.00,VWS V14.00,2013-05-02 13:20:00,
2013-05-02 09:25:00,60.2,49.6,30.22,ENE,69,9.0,16.0,68,0.00,,---,0.00,VWS V14.00,2013-05-02 13:25:00,
2013-05-02 09:30:00,60.4,49.8,30.23,NE,34,4.0,9.0,68,0.00,,---,0.00,VWS V14.00,2013-05-02 13:30:00,
2013-05-02 09:35:00,60.7,49.7,30.23,NNE,25,11.0,17.0,67,0.00,,---,0.00,VWS V14.00,2013-05-02 13:35:00,
2013-05-02 09:41:00,61.0,51.2,30.23,NNE,21,7.0,17.0,70,0.00,,---,0.00,VWS V14.00,2013-05-02 13:41:00,
2013-05-02 09:46:00,61.5,50.5,30.22,NE,45,10.0,17.0,67,0.00,,---,0.00,VWS V14.00,2013-05-02 13:46:00,
2013-05-02 09:51:00,61.3,50.3,30.22,NNE,17,10.0,17.0,67,0.00,,---,0.00,VWS V14.00,2013-05-02 13:51:00,
2013-05-02 09:56:00,61.5,50.0,30.22,North,350,6.0,17.0,66,0.00,,---,0.00,VWS V14.00,2013-05-02 13:56:00,
2013-05-02 10:01:00,61.3,49.0,30.22,NNE,24,15.0,18.0,64,0.00,,---,0.00,VWS V14.00,2013-05-02 14:01:00,
2013-05-02 10:06:00,61.2,48.9,30.22,NNE,32,17.0,21.0,64,0.00,,---,0.00,VWS V14.00,2013-05-02 14:06:00,
2013-05-02 10:11:00,61.3,49.9,30.22,NNE,31,13.0,21.0,66,0.00,,---,0.00,VWS V14.00,2013-05-02 14:11:00,
2013-05-02 10:16:00,61.8,49.1,30.22,NNE,27,8.0,23.0,63,0.00,,---,0.00,VWS V14.00,2013-05-02 14:16:00,
2013-05-02 10:21:00,62.0,48.8,30.22,NNE,14,14.0,23.0,62,0.00,,---,0.00,VWS V14.00,2013-05-02 14:21:00,
2013-05-02 10:26:00,61.8,48.7,30.22,ENE,71,16.0,23.0,62,0.00,,---,0.00,VWS V14.00,2013-05-02 14:26:00,
2013-05-02 10:31:00,62.0,48.0,30.22,NE,48,18.0,18.0,60,0.00,,---,0.00,VWS V14.00,2013-05-02 14:31:00,
2013-05-02 10:36:00,62.0,49.3,30.22,North,353,21.0,21.0,63,0.00,,---,0.00,VWS V14.00,2013-05-02 14:36:00,
2013-05-02 10:41:00,62.0,48.0,30.22,NE,44,10.0,21.0,60,0.00,,---,0.00,VWS V14.00,2013-05-02 14:41:00,
2013-05-02 10:46:00,62.4,49.2,30.22,NE,40,10.0,21.0,62,0.00,,---,0.00,VWS V14.00,2013-05-02 14:46:00,
2013-05-02 10:51:00,62.9,48.8,30.22,NNE,16,8.0,21.0,60,0.00,,---,0.00,VWS V14.00,2013-05-02 14:51:00,
2013-05-02 10:56:00,63.5,49.8,30.22,NE,55,10.0,21.0,61,0.00,,---,0.00,VWS V14.00,2013-05-02 14:56:00,
2013-05-02 11:01:00,63.7,48.7,30.22,NNE,28,7.0,13.0,58,0.00,,---,0.00,VWS V14.00,2013-05-02 15:01:00,
2013-05-02 11:06:00,64.2,48.7,30.22,ENE,76,10.0,18.0,57,0.00,,---,0.00,VWS V14.00,2013-05-02 15:06:00,
2013-05-02 11:11:00,64.5,48.0,30.22,South,179,6.0,21.0,55,0.00,,---,0.00,VWS V14.00,2013-05-02 15:11:00,
2013-05-02 11:16:00,64.8,47.3,30.22,NE,49,8.0,21.0,53,0.00,,---,0.00,VWS V14.00,2013-05-02 15:16:00,
2013-05-02 11:21:00,65.0,47.0,30.22,NNE,17,10.0,21.0,52,0.00,,---,0.00,VWS V14.00,2013-05-02 15:21:00,
2013-05-02 11:26:00,65.2,47.2,30.22,ENE,75,6.0,21.0,52,0.00,,---,0.00,VWS V14.00,2013-05-02 15:26:00,
2013-05-02 11:31:00,65.6,48.5,30.22,NNE,24,9.0,16.0,54,0.00,,---,0.00,VWS V14.00,2013-05-02 15:31:00,
2013-05-02 11:36:00,66.0,47.9,30.22,East,90,9.0,16.0,52,0.00,,---,0.00,VWS V14.00,2013-05-02 15:36:00,
2013-05-02 11:41:00,66.4,50.2,30.22,ENE,73,8.0,16.0,56,0.00,,---,0.00,VWS V14.00,2013-05-02 15:41:00,
2013-05-02 11:46:00,66.3,48.7,30.22,North,7,7.0,16.0,53,0.00,,---,0.00,VWS V14.00,2013-05-02 15:46:00,
2013-05-02 11:51:00,66.1,49.5,30.22,North,0,10.0,16.0,55,0.00,,---,0.00,VWS V14.00,2013-05-02 15:51:00,
2013-05-02 11:56:00,66.0,47.4,30.22,South,182,7.0,16.0,51,0.00,,---,0.00,VWS V14.00,2013-05-02 15:56:00,
2013-05-02 12:01:00,66.0,48.9,30.22,East,79,6.0,8.0,54,0.00,,---,0.00,VWS V14.00,2013-05-02 16:01:00,
2013-05-02 12:06:00,65.8,47.2,30.22,East,88,4.0,17.0,51,0.00,,---,0.00,VWS V14.00,2013-05-02 16:06:00,
2013-05-02 12:11:00,66.0,48.4,30.22,NE,45,0.0,17.0,53,0.00,,---,0.00,VWS V14.00,2013-05-02 16:11:00,
2013-05-02 12:16:00,66.3,48.2,30.22,East,89,2.0,17.0,52,0.00,,---,0.00,VWS V14.00,2013-05-02 16:16:00,
2013-05-02 12:21:00,66.8,49.6,30.22,ENE,73,7.0,17.0,54,0.00,,---,0.00,VWS V14.00,2013-05-02 16:21:00,
2013-05-02 12:26:00,66.8,49.1,30.22,SE,126,7.0,17.0,53,0.00,,---,0.00,VWS V14.00,2013-05-02 16:26:00,
2013-05-02 12:31:00,66.9,48.2,30.22,SSE,168,6.0,13.0,51,0.00,,---,0.00,VWS V14.00,2013-05-02 16:31:00,
2013-05-02 12:36:00,67.1,48.9,30.22,SE,131,6.0,13.0,52,0.00,,---,0.00,VWS V14.00,2013-05-02 16:36:00,
2013-05-02 12:41:00,67.1,49.9,30.22,East,86,2.0,15.0,54,0.00,,---,0.00,VWS V14.00,2013-05-02 16:41:00,
2013-05-02 12:46:00,67.6,49.9,30.21,ENE,73,4.0,15.0,53,0.00,,---,0.00,VWS V14.00,2013-05-02 16:46:00,
2013-05-02 12:51:00,67.6,49.9,30.21,ENE,69,8.0,18.0,53,0.00,,---,0.00,VWS V14.00,2013-05-02 16:51:00,
2013-05-02 12:56:00,67.3,49.6,30.21,NE,49,10.0,18.0,53,0.00,,---,0.00,VWS V14.00,2013-05-02 16:56:00,
2013-05-02 13:01:00,67.6,52.8,30.21,East,86,6.0,13.0,59,0.00,,---,0.00,VWS V14.00,2013-05-02 17:01:00,
2013-05-02 13:06:00,67.6,49.4,30.21,East,82,2.0,16.0,52,0.00,,---,0.00,VWS V14.00,2013-05-02 17:06:00,
2013-05-02 13:11:00,67.9,50.2,30.21,North,8,9.0,16.0,53,0.00,,---,0.00,VWS V14.00,2013-05-02 17:11:00,
2013-05-02 13:16:00,67.9,50.2,30.21,NE,49,9.0,16.0,53,0.00,,---,0.00,VWS V14.00,2013-05-02 17:16:00,
2013-05-02 13:21:00,68.3,50.5,30.21,NNE,21,1.0,16.0,53,0.00,,---,0.00,VWS V14.00,2013-05-02 17:21:00,
2013-05-02 13:26:00,68.3,50.0,30.21,East,86,6.0,18.0,52,0.00,,---,0.00,VWS V14.00,2013-05-02 17:26:00,
2013-05-02 13:31:00,67.8,50.1,30.21,ENE,64,4.0,13.0,53,0.00,,---,0.00,VWS V14.00,2013-05-02 17:31:00,
2013-05-02 13:37:00,67.6,50.4,30.21,ENE,73,6.0,17.0,54,0.00,,---,0.00,VWS V14.00,2013-05-02 17:37:00,
2013-05-02 13:42:00,67.9,51.6,30.21,NNE,32,8.0,17.0,56,0.00,,---,0.00,VWS V14.00,2013-05-02 17:42:00,
2013-05-02 13:47:00,68.1,50.8,30.21,NE,44,4.0,17.0,54,0.00,,---,0.00,VWS V14.00,2013-05-02 17:47:00,
2013-05-02 13:52:00,68.4,49.6,30.21,NE,41,4.0,17.0,51,0.00,,---,0.00,VWS V14.00,2013-05-02 17:52:00,
2013-05-02 13:57:00,68.3,49.0,30.21,SE,138,4.0,17.0,50,0.00,,---,0.00,VWS V14.00,2013-05-02 17:57:00,
2013-05-02 14:02:00,68.1,49.3,30.21,NE,56,6.0,13.0,51,0.00,,---,0.00,VWS V14.00,2013-05-02 18:02:00,
2013-05-02 14:07:00,68.3,51.0,30.21,North,11,7.0,13.0,54,0.00,,---,0.00,VWS V14.00,2013-05-02 18:07:00,
2013-05-02 14:12:00,68.4,51.6,30.21,NNE,30,10.0,14.0,55,0.00,,---,0.00,VWS V14.00,2013-05-02 18:12:00,
2013-05-02 14:17:00,68.8,50.0,30.20,NNE,32,6.0,15.0,51,0.00,,---,0.00,VWS V14.00,2013-05-02 18:17:00,
2013-05-02 14:22:00,68.8,50.5,30.20,North,1,1.0,15.0,52,0.00,,---,0.00,VWS V14.00,2013-05-02 18:22:00,
2013-05-02 14:27:00,68.4,49.1,30.20,NNE,32,10.0,15.0,50,0.00,,---,0.00,VWS V14.00,2013-05-02 18:27:00,
2013-05-02 14:32:00,68.4,49.6,30.20,North,4,4.0,13.0,51,0.00,,---,0.00,VWS V14.00,2013-05-02 18:32:00,
2013-05-02 14:37:00,68.4,50.6,30.20,NE,54,7.0,15.0,53,0.00,,---,0.00,VWS V14.00,2013-05-02 18:37:00,
2013-05-02 14:42:00,68.4,49.6,30.20,East,82,6.0,15.0,51,0.00,,---,0.00,VWS V14.00,2013-05-02 18:42:00,
2013-05-02 14:47:00,68.1,50.3,30.20,NE,42,7.0,17.0,53,0.00,,---,0.00,VWS V14.00,2013-05-02 18:47:00,
2013-05-02 14:52:00,67.9,49.1,30.20,NNE,17,8.0,17.0,51,0.00,,---,0.00,VWS V14.00,2013-05-02 18:52:00,
2013-05-02 14:57:00,67.8,49.0,30.20,NE,44,6.0,17.0,51,0.00,,---,0.00,VWS V14.00,2013-05-02 18:57:00,
2013-05-02 15:02:00,67.4,50.2,30.20,East,85,9.0,13.0,54,0.00,,---,0.00,VWS V14.00,2013-05-02 19:02:00,
2013-05-02 15:07:00,67.1,49.9,30.20,NNE,17,11.0,15.0,54,0.00,,---,0.00,VWS V14.00,2013-05-02 19:07:00,
2013-05-02 15:12:00,66.8,51.1,30.20,NNE,13,8.0,15.0,57,0.00,,---,0.00,VWS V14.00,2013-05-02 19:12:00,
2013-05-02 15:17:00,66.6,49.5,30.20,SE,143,8.0,16.0,54,0.00,,---,0.00,VWS V14.00,2013-05-02 19:17:00,
2013-05-02 15:22:00,66.8,50.6,30.20,West,263,4.0,20.0,56,0.00,,---,0.00,VWS V14.00,2013-05-02 19:22:00,
2013-05-02 15:27:00,66.8,50.1,30.20,East,92,4.0,20.0,55,0.00,,---,0.00,VWS V14.00,2013-05-02 19:27:00,
2013-05-02 15:32:00,66.9,51.2,30.20,East,89,4.0,13.0,57,0.00,,---,0.00,VWS V14.00,2013-05-02 19:32:00,
2013-05-02 15:37:00,67.1,51.4,30.20,ENE,58,6.0,13.0,57,0.00,,---,0.00,VWS V14.00,2013-05-02 19:37:00,
2013-05-02 15:42:00,66.9,50.7,30.20,ENE,66,7.0,16.0,56,0.00,,---,0.00,VWS V14.00,2013-05-02 19:42:00,
2013-05-02 15:47:00,66.9,52.6,30.19,ENE,76,2.0,16.0,60,0.00,,---,0.00,VWS V14.00,2013-05-02 19:47:00,
2013-05-02 15:52:00,66.9,50.2,30.19,East,93,7.0,16.0,55,0.00,,---,0.00,VWS V14.00,2013-05-02 19:52:00,
2013-05-02 15:57:00,66.9,50.7,30.19,NE,40,11.0,16.0,56,0.00,,---,0.00,VWS V14.00,2013-05-02 19:57:00,
2013-05-02 16:02:00,66.8,50.6,30.19,East,83,7.0,10.0,56,0.00,,---,0.00,VWS V14.00,2013-05-02 20:02:00,
2013-05-02 16:07:00,66.3,49.7,30.19,ENE,66,7.0,15.0,55,0.00,,---,0.00,VWS V14.00,2013-05-02 20:07:00,
2013-05-02 16:13:00,66.1,50.0,30.19,East,79,9.0,16.0,56,0.00,,---,0.00,VWS V14.00,2013-05-02 20:13:00,
2013-05-02 16:18:00,66.1,50.4,30.19,North,6,11.0,16.0,57,0.00,,---,0.00,VWS V14.00,2013-05-02 20:18:00,
2013-05-02 16:23:00,66.0,51.3,30.19,North,10,6.0,16.0,59,0.00,,---,0.00,VWS V14.00,2013-05-02 20:23:00,
2013-05-02 16:28:00,66.0,50.8,30.19,NNE,31,6.0,16.0,58,0.00,,---,0.00,VWS V14.00,2013-05-02 20:28:00,
2013-05-02 16:33:00,66.0,50.3,30.19,East,88,14.0,14.0,57,0.00,,---,0.00,VWS V14.00,2013-05-02 20:33:00,
2013-05-02 16:38:00,66.0,50.3,30.19,NE,51,7.0,14.0,57,0.00,,---,0.00,VWS V14.00,2013-05-02 20:38:00,
2013-05-02 16:43:00,66.1,51.4,30.19,ESE,106,7.0,14.0,59,0.00,,---,0.00,VWS V14.00,2013-05-02 20:43:00,
2013-05-02 16:48:00,66.1,51.4,30.19,ENE,59,8.0,14.0,59,0.00,,---,0.00,VWS V14.00,2013-05-02 20:48:00,
2013-05-02 16:53:00,65.8,51.5,30.19,NNE,27,4.0,14.0,60,0.00,,---,0.00,VWS V14.00,2013-05-02 20:53:00,
2013-05-02 16:58:00,65.5,50.8,30.19,NE,54,7.0,14.0,59,0.00,,---,0.00,VWS V14.00,2013-05-02 20:58:00,
2013-05-02 17:03:00,65.2,50.5,30.19,NE,55,7.0,10.0,59,0.00,,---,0.00,VWS V14.00,2013-05-02 21:03:00,
2013-05-02 17:08:00,65.2,51.0,30.19,NNE,32,2.0,10.0,60,0.00,,---,0.00,VWS V14.00,2013-05-02 21:08:00,
2013-05-02 17:13:00,65.2,51.9,30.19,North,8,7.0,11.0,62,0.01,,---,0.01,VWS V14.00,2013-05-02 21:13:00,
2013-05-02 17:18:00,64.8,50.6,30.19,East,99,7.0,13.0,60,0.01,,---,0.01,VWS V14.00,2013-05-02 21:18:00,
2013-05-02 17:23:00,64.5,51.2,30.19,ENE,76,2.0,13.0,62,0.01,,---,0.01,VWS V14.00,2013-05-02 21:23:00,
2013-05-02 17:28:00,64.3,51.0,30.19,NE,37,8.0,18.0,62,0.01,,---,0.01,VWS V14.00,2013-05-02 21:28:00,
2013-05-02 17:33:00,64.2,50.5,30.20,East,99,13.0,15.0,61,0.01,,---,0.01,VWS V14.00,2013-05-02 21:33:00,
2013-05-02 17:38:00,63.9,50.2,30.20,East,83,8.0,15.0,61,0.01,,---,0.01,VWS V14.00,2013-05-02 21:38:00,
2013-05-02 17:43:00,63.7,50.5,30.20,NE,55,10.0,15.0,62,0.01,,---,0.01,VWS V14.00,2013-05-02 21:43:00,
2013-05-02 17:48:00,63.7,50.9,30.19,East,90,6.0,15.0,63,0.01,,---,0.01,VWS V14.00,2013-05-02 21:48:00,
2013-05-02 17:53:00,63.7,50.5,30.19,ENE,58,0.0,15.0,62,0.01,,---,0.01,VWS V14.00,2013-05-02 21:53:00,
2013-05-02 17:58:00,63.7,50.0,30.19,NE,48,9.0,15.0,61,0.01,,---,0.01,VWS V14.00,2013-05-02 21:58:00,
2013-05-02 18:03:00,63.5,50.3,30.19,ENE,64,7.0,13.0,62,0.01,,---,0.01,VWS V14.00,2013-05-02 22:03:00,
2013-05-02 18:08:00,63.2,50.0,30.19,ESE,103,0.0,16.0,62,0.01,,---,0.01,VWS V14.00,2013-05-02 22:08:00,
2013-05-02 18:13:00,63.1,49.9,30.19,East,83,7.0,16.0,62,0.01,,---,0.01,VWS V14.00,2013-05-02 22:13:00,
2013-05-02 18:18:00,62.9,49.7,30.19,ESE,119,6.0,16.0,62,0.01,,---,0.01,VWS V14.00,2013-05-02 22:18:00,
2013-05-02 18:23:00,62.7,50.4,30.19,NNE,24,10.0,17.0,64,0.01,,---,0.01,VWS V14.00,2013-05-02 22:23:00,
2013-05-02 18:28:00,62.6,50.3,30.19,NE,47,18.0,18.0,64,0.01,,---,0.01,VWS V14.00,2013-05-02 22:28:00,
2013-05-02 18:33:00,62.4,50.1,30.18,SE,126,2.0,15.0,64,0.00,,---,0.01,VWS V14.00,2013-05-02 22:33:00,
2013-05-02 18:38:00,62.3,50.4,30.18,NNE,17,7.0,15.0,65,0.00,,---,0.01,VWS V14.00,2013-05-02 22:38:00,
2013-05-02 18:43:00,62.3,50.0,30.18,East,93,7.0,15.0,64,0.00,,---,0.01,VWS V14.00,2013-05-02 22:43:00,
2013-05-02 18:48:00,62.1,49.8,30.19,NE,35,6.0,15.0,64,0.00,,---,0.01,VWS V14.00,2013-05-02 22:48:00,
2013-05-02 18:53:00,62.0,49.7,30.19,ENE,58,9.0,15.0,64,0.00,,---,0.01,VWS V14.00,2013-05-02 22:53:00,
2013-05-02 18:58:00,61.8,49.5,30.19,NNE,13,13.0,15.0,64,0.00,,---,0.01,VWS V14.00,2013-05-02 22:58:00,
2013-05-02 19:03:00,61.6,49.7,30.18,ENE,64,8.0,11.0,65,0.00,,---,0.01,VWS V14.00,2013-05-02 23:03:00,
2013-05-02 19:08:00,61.3,49.9,30.18,North,11,7.0,14.0,66,0.00,,---,0.01,VWS V14.00,2013-05-02 23:08:00,
2013-05-02 19:13:00,61.3,49.5,30.18,East,85,6.0,17.0,65,0.00,,---,0.01,VWS V14.00,2013-05-02 23:13:00,
2013-05-02 19:18:00,61.2,49.3,30.18,NE,49,8.0,17.0,65,0.00,,---,0.01,VWS V14.00,2013-05-02 23:18:00,
2013-05-02 19:23:00,61.0,49.6,30.18,NNE,17,11.0,17.0,66,0.00,,---,0.01,VWS V14.00,2013-05-02 23:23:00,
2013-05-02 19:29:00,60.9,49.5,30.18,North,10,6.0,17.0,66,0.00,,---,0.01,VWS V14.00,2013-05-02 23:29:00,
2013-05-02 19:34:00,60.7,49.3,30.18,NE,42,2.0,16.0,66,0.00,,---,0.01,VWS V14.00,2013-05-02 23:34:00,
2013-05-02 19:39:00,60.5,49.5,30.18,NE,45,7.0,16.0,67,0.00,,---,0.01,VWS V14.00,2013-05-02 23:39:00,
2013-05-02 19:44:00,60.5,49.5,30.18,East,82,7.0,16.0,67,0.00,,---,0.01,VWS V14.00,2013-05-02 23:44:00,
2013-05-02 19:49:00,60.5,48.7,30.18,NE,54,9.0,16.0,65,0.00,,---,0.01,VWS V14.00,2013-05-02 23:49:00,
2013-05-02 19:54:00,60.5,48.7,30.18,NNE,25,11.0,17.0,65,0.00,,---,0.01,VWS V14.00,2013-05-02 23:54:00,
2013-05-02 19:59:00,60.4,49.0,30.19,East,85,2.0,17.0,66,0.00,,---,0.01,VWS V14.00,2013-05-02 23:59:00,
2013-05-02 20:04:00,60.2,48.8,30.19,East,95,4.0,8.0,66,0.00,,---,0.01,VWS V14.00,2013-05-03 00:04:00,
2013-05-02 20:09:00,60.1,49.1,30.19,East,80,4.0,9.0,67,0.00,,---,0.01,VWS V14.00,2013-05-03 00:09:00,
2013-05-02 20:14:00,59.9,48.9,30.19,East,83,6.0,10.0,67,0.00,,---,0.01,VWS V14.00,2013-05-03 00:14:00,
2013-05-02 20:19:00,59.9,48.9,30.19,ESE,102,0.0,13.0,67,0.00,,---,0.01,VWS V14.00,2013-05-03 00:19:00,
2013-05-02 20:24:00,59.8,48.8,30.19,East,86,4.0,13.0,67,0.00,,---,0.01,VWS V14.00,2013-05-03 00:24:00,
2013-05-02 20:29:00,59.6,49.0,30.19,East,90,2.0,13.0,68,0.00,,---,0.01,VWS V14.00,2013-05-03 00:29:00,
2013-05-02 20:35:00,59.3,48.8,30.18,East,92,6.0,11.0,68,0.00,,---,0.01,VWS V14.00,2013-05-03 00:35:00,
2013-05-02 20:41:00,59.3,48.8,30.18,East,99,1.0,11.0,68,0.00,,---,0.01,VWS V14.00,2013-05-03 00:41:00,
2013-05-02 20:46:00,59.2,48.7,30.19,ESE,119,2.0,11.0,68,0.00,,---,0.01,VWS V14.00,2013-05-03 00:46:00,
2013-05-02 20:51:00,59.0,48.9,30.19,NE,56,1.0,11.0,69,0.00,,---,0.01,VWS V14.00,2013-05-03 00:51:00,
2013-05-02 20:56:00,58.9,48.8,30.19,NNE,21,0.0,11.0,69,0.00,,---,0.01,VWS V14.00,2013-05-03 00:56:00,
2013-05-02 21:01:00,58.7,49.0,30.19,NE,49,2.0,9.0,70,0.00,,---,0.01,VWS V14.00,2013-05-03 01:01:00,
2013-05-02 21:06:00,58.7,49.0,30.19,North,3,4.0,9.0,70,0.00,,---,0.01,VWS V14.00,2013-05-03 01:06:00,
2013-05-02 21:11:00,58.4,48.7,30.19,NNE,25,0.0,9.0,70,0.00,,---,0.01,VWS V14.00,2013-05-03 01:11:00,
2013-05-02 21:16:00,58.4,49.0,30.19,ENE,61,4.0,9.0,71,0.00,,---,0.01,VWS V14.00,2013-05-03 01:16:00,
2013-05-02 21:21:00,58.4,48.7,30.19,East,99,1.0,13.0,70,0.00,,---,0.01,VWS V14.00,2013-05-03 01:21:00,
2013-05-02 21:26:00,58.4,49.0,30.19,NE,40,10.0,13.0,71,0.00,,---,0.01,VWS V14.00,2013-05-03 01:26:00,
2013-05-02 21:31:00,58.4,49.0,30.19,NE,44,10.0,10.0,71,0.00,,---,0.01,VWS V14.00,2013-05-03 01:31:00,
2013-05-02 21:36:00,58.3,49.0,30.19,ENE,58,10.0,11.0,71,0.00,,---,0.01,VWS V14.00,2013-05-03 01:36:00,
2013-05-02 21:41:00,58.1,49.1,30.19,ESE,112,4.0,11.0,72,0.00,,---,0.01,VWS V14.00,2013-05-03 01:41:00,
2013-05-02 21:46:00,58.0,49.4,30.20,ENE,59,8.0,11.0,73,0.00,,---,0.01,VWS V14.00,2013-05-03 01:46:00,
2013-05-02 21:51:00,58.0,49.4,30.20,ENE,66,2.0,11.0,73,0.00,,---,0.01,VWS V14.00,2013-05-03 01:51:00,
2013-05-02 21:56:00,58.0,49.4,30.20,ENE,65,2.0,14.0,73,0.00,,---,0.01,VWS V14.00,2013-05-03 01:56:00,
2013-05-02 22:01:00,57.8,49.2,30.20,ENE,72,9.0,11.0,73,0.00,,---,0.01,VWS V14.00,2013-05-03 02:01:00,
2013-05-02 22:06:00,57.8,49.2,30.20,NE,51,9.0,11.0,73,0.00,,---,0.01,VWS V14.00,2013-05-03 02:06:00,
2013-05-02 22:11:00,57.6,49.0,30.20,NE,38,6.0,13.0,73,0.00,,---,0.01,VWS V14.00,2013-05-03 02:11:00,
2013-05-02 22:16:00,57.6,49.0,30.19,East,96,2.0,15.0,73,0.00,,---,0.01,VWS V14.00,2013-05-03 02:16:00,
2013-05-02 22:21:00,57.5,49.3,30.19,North,11,8.0,16.0,74,0.00,,---,0.01,VWS V14.00,2013-05-03 02:21:00,
2013-05-02 22:26:00,57.3,49.5,30.19,NNE,21,7.0,16.0,75,0.00,,---,0.01,VWS V14.00,2013-05-03 02:26:00,
2013-05-02 22:31:00,57.3,49.1,30.20,ENE,69,7.0,15.0,74,0.00,,---,0.01,VWS V14.00,2013-05-03 02:31:00,
2013-05-02 22:36:00,57.3,49.1,30.20,NE,42,7.0,16.0,74,0.00,,---,0.01,VWS V14.00,2013-05-03 02:36:00,
2013-05-02 22:41:00,57.3,49.1,30.20,ENE,65,7.0,16.0,74,0.00,,---,0.01,VWS V14.00,2013-05-03 02:41:00,
2013-05-02 22:46:00,57.2,49.4,30.19,NE,56,7.0,16.0,75,0.00,,---,0.01,VWS V14.00,2013-05-03 02:46:00,
2013-05-02 22:51:00,57.0,49.2,30.19,NE,48,7.0,16.0,75,0.00,,---,0.01,VWS V14.00,2013-05-03 02:51:00,
2013-05-02 22:56:00,56.9,49.4,30.19,ENE,72,8.0,16.0,76,0.00,,---,0.01,VWS V14.00,2013-05-03 02:56:00,
2013-05-02 23:01:00,56.9,49.1,30.20,East,95,6.0,17.0,75,0.00,,---,0.01,VWS V14.00,2013-05-03 03:01:00,
2013-05-02 23:06:00,56.9,49.1,30.20,NE,48,2.0,17.0,75,0.00,,---,0.01,VWS V14.00,2013-05-03 03:06:00,
2013-05-02 23:11:00,56.9,48.7,30.20,NE,48,11.0,17.0,74,0.00,,---,0.01,VWS V14.00,2013-05-03 03:11:00,
2013-05-02 23:16:00,56.9,48.7,30.19,NE,44,8.0,17.0,74,0.00,,---,0.01,VWS V14.00,2013-05-03 03:16:00,
2013-05-02 23:21:00,57.0,48.8,30.19,NE,42,4.0,17.0,74,0.00,,---,0.01,VWS V14.00,2013-05-03 03:21:00,
2013-05-02 23:26:00,56.9,48.7,30.19,ENE,71,7.0,17.0,74,0.00,,---,0.01,VWS V14.00,2013-05-03 03:26:00,
2013-05-02 23:31:00,57.0,48.8,30.19,NE,48,8.0,14.0,74,0.00,,---,0.01,VWS V14.00,2013-05-03 03:31:00,
2013-05-02 23:36:00,56.9,48.7,30.19,NE,48,10.0,14.0,74,0.00,,---,0.01,VWS V14.00,2013-05-03 03:36:00,
2013-05-02 23:41:00,56.9,48.7,30.19,NE,55,7.0,14.0,74,0.00,,---,0.01,VWS V14.00,2013-05-03 03:41:00,
2013-05-02 23:46:00,56.7,48.5,30.19,NNE,27,7.0,15.0,74,0.00,,---,0.01,VWS V14.00,2013-05-03 03:46:00,
2013-05-02 23:51:00,56.6,48.4,30.19,ENE,65,8.0,15.0,74,0.00,,---,0.01,VWS V14.00,2013-05-03 03:51:00,
2013-05-02 23:56:00,56.7,48.5,30.19,ENE,76,9.0,15.0,74,0.00,,---,0.01,VWS V14.00,2013-05-03 03:56:00,